Starlink 32634

operational
NORAD ID: 62313 Int'l Des: 2024-239 Owner: SPXS Country: US Constellation: starlink
LEOCIRCULAR

About Starlink 32634

Description loading...

Live Position

Loading 3D Globe...

Upcoming Passes

Altitude History

Altitude vs Time

uPlot chart will show altitude changes over time

Two-Line Element Set

1 62313U 24239N 25306.50160604 .00030032 00000-0 10212-2 0 9999
2 62313 53.1613 51.7170 0001073 84.2015 275.9108 15.30226073 50093
Epoch: Nov 2, 2025 • Age: 20 hours

Current Status

Altitude 475.4 km
Velocity 7.63 km/s
Sub-Earth Point 3.87°N, 118.75°W
Launch Date Dec 13, 2024
Age 0.8 years
Type internet

Technical Details

Classification Payload
Mass 730.00 kg
Dry Mass 700.00 kg
Total Mass 730.00 kg
Length 0.30 m
Diameter 4.10 m
Span 29.00 m
Shape Box + pan
Manufacturer SPXS
Bus Type Starlink V2M
Phase Status In Orbit
Owner/State SPXS/US

Large Constellations

Loading constellations...